Location: Bremen
(53.0793°N, 8.8017°E)
Time: 12:01:11
(UTC+01:00)

deb Explorer IX - Pass Details

Date: 17 December 2021
Orbit: 544 x 1082 km, 38.8° (Epoch: 14 January)

Event Time Altitude Azimuth Distance (km) Brightness Sun altitude
Rises 09:11:51 0° 255° (WSW) 3,555 ? 3.3°
Reaches altitude 10° 09:15:56 10° 231° (SW) 2,481 ? 3.7°
Maximum altitude 09:18:42 14° 203° (SSW) 2,137 ? 4.0°
Drops below altitude 10° 09:21:19 10° 174° (S) 2,293 ? 4.2°
Sets 09:24:49 0° 148° (SSE) 3,089 ? 4.6°
